{"data":{"norad_id":67350,"epoch":"2026-05-24T07:45:15.064128Z","epoch_age_seconds":126805,"freshness":"FRESH","line1":"1 67350U 26003S   26144.32309102  .00014690  00000+0  54190-3 0  9990","line2":"2 67350  42.9987 159.6997 0002017 273.8874  86.1747 15.27603363 20390","mean_motion":15.27603363,"eccentricity":0.0002017,"inclination_deg":42.9987,"raan_deg":159.6997,"arg_perigee_deg":273.8874,"mean_anomaly_deg":86.1747,"bstar":0.0005419,"rev_number":2039,"period_min":94.26530700823,"perigee_km":481.59525257908,"apogee_km":484.36302682984,"semimajor_km":6861.1161397045,"source":"CELESTRAK","updated_at":"2026-05-25T13:38:21.525486Z"}}